Regional Weather Roundup
Issued by NWS

Home | Current Version | Previous Version | Text Only | Print | Product List | Glossary On
Versions: 1 2 3 4 5 6 7 8 9 10 11 12 13 14 15 16 17 18 19 20 21 22 23 24 25 26 27 28 29 30 31 32 33 34 35 36 37 38 39 40 41 42 43 44 45 46 47 48 49 50
000
ASUS45 KREV 050310
RWRNV
NEVADA REGIONAL WEATHER ROUNDUP
NATIONAL WEATHER SERVICE RENO NV
700 PM PST WED MAR 04 2015

NOTE: "FAIR" INDICATES FEW OR NO CLOUDS BELOW 12,000 FEET WITH NO
SIGNIFICANT WEATHER AND/OR OBSTRUCTIONS TO VISIBILITY.

NVZ001-003-004-050400-
WESTERN NEVADA

CITY           SKY/WX    TMP DP  RH WIND       PRES   REMARKS
RENO           CLEAR     46  17  31 NE6       30.23R
CARSON CITY    FAIR      43  14  31 NE10      30.23R
MINDEN         FAIR      37  19  48 NW8       30.23
SLIDE MTN        N/A     32   1  27 N6          N/A
PYRAMID LAKE     N/A     45 N/A N/A W3          N/A
FALLON         NOT AVBL
LOVELOCK       CLEAR     36  20  52 W5        30.25R
HAWTHORNE      CLEAR     43  18  36 CALM      30.23R
$$

NVZ002-CAZ072-073-050400-
NORTHERN AND CENTRAL SIERRA

CITY           SKY/WX    TMP DP  RH WIND       PRES   REMARKS
S. LAKE TAHOE  CLEAR     33  19  56 CALM      30.22R
TRUCKEE        CLEAR     32  21  64 CALM      30.22R
SQUAW VLY 8000   N/A     30  12  47 VRB2        N/A
SUSANVILLE     CLEAR     36  21  55 NW3       30.24R
BLUE CANYON    CLEAR     40  33  76 CALM      30.22R
MAMMOTH LAKES  FAIR      37   0  20 CALM      30.22R
BRIDGEPORT     FAIR      33  15  47 CALM      30.21R
$$

NVZ030-031-036-050400-
NORTHERN NEVADA

CITY           SKY/WX    TMP DP  RH WIND       PRES   REMARKS
ELKO           CLEAR     30  16  56 SW6       30.25R
WINNEMUCCA     NOT AVBL
WENDOVER       CLEAR     36  19  51 S5        30.28R
$$

NVZ035-037-050400-
CENTRAL NEVADA

CITY           SKY/WX    TMP DP  RH WIND       PRES   REMARKS
ELY            CLEAR     27  18  69 CALM      30.25R
EUREKA           N/A     27  17  66 SE3       30.26R
$$

NVZ013-014-050400-
SOUTH CENTRAL NEVADA

CITY           SKY/WX    TMP DP  RH WIND       PRES   REMARKS
TONOPAH        NOT AVBL
$$

NVZ017-020-022-050400-
SOUTHERN NEVADA

CITY           SKY/WX    TMP DP  RH WIND       PRES   REMARKS
LAS VEGAS      NOT AVBL
N. LAS VEGAS   CLEAR     53  21  28 SE6       30.20R
NELLIS AFB     CLEAR     53  26  34 E9        30.21R
HENDERSON      CLEAR     51  22  31 NE8       30.22R
MERCURY        CLEAR     47  23  38 SE12      30.20R
$$



USA.gov is the U.S. government's official web portal to all federal, state and local government web resources and services.